Back to catalog

ARIANE 42P+ DEB

AliveHEO
NORAD 34195·DEBRIS·🇫🇷 France

Launched Oct 28, 1992 from Guiana Space Centre

Loading…

Next Passes (next 24 hours)

TLE

FreshSource: Space-Track

Epoch: Sep 14, 2026, 12:48 UTC

1 34195U 92072AB  26257.53336206 -.00000023  00000-0  12580-2 0  9996
2 34195   5.6836 323.8660 6573870 202.4915 128.2664  2.94852412142293

Track ARIANE 42P+ DEB in real time with AllMySat

Download on the App Store